Limon, CO

3:36 PM MDT on April 19, 2018 (GMT -0600)
Limon Municipal

Weather History for KLIC - September, 2013

Change the Weather History Date:

Monday, September 16, 2013

  Actual Average Record
Temperature  
Mean Temperature 58 °F -  
Max Temperature 65 °F - 95 °F (2000)
Min Temperature 51 °F - 35 °F (2012)
Degree Days  
Heating Degree Days 7    
Month to date heating degree days 19  
Cooling Degree Days 0    
Month to date cooling degree days 58  
Growing Degree Days 7 (Base 50)    
Moisture  
Dew Point 53 °F    
Average Humidity 86    
Maximum Humidity 100    
Minimum Humidity 72    
Precipitation  
Precipitation 0.00 in - 0.08 in (2007)
Month to date precipitation 2.99  
Year to date precipitation 15.14  
Sea Level Pressure  
Sea Level Pressure 30.19 in    
Wind  
Wind Speed 11 mph (SSE)    
Max Wind Speed 23 mph    
Max Gust Speed 31 mph    
Visibility 6 miles    
Events Fog    
T = Trace of Precipitation, MM = Missing Value Source: NWS Daily Summary

Daily Weather History Graph

Daily Weather History Graph

Search for Another Location

Airport or City:

Astronomy

Sep. 16, 2013 Rise Set
Actual Time 6:37 AM MDT 7:00 PM MDT
Civil Twilight 6:10 AM MDT 7:27 PM MDT
Nautical Twilight 5:38 AM MDT 7:59 PM MDT
Astronomical Twilight 5:06 AM MDT 8:31 PM MDT
Moon 5:10 PM MDT (9/16) 3:26 AM MDT (9/16)
Length of Visible Light 13h 17m
Length of Day
12h 23m
Waxing Gibbous, 90% of the Moon is Illuminated
Sep 16
Waxing Gibbous
Sep 19
Full
Sep 26
Last Quarter
Oct 4
New
Oct 11
First Quarter

Hourly Weather History & Observations

Time (MDT) Temp. Dew Point Humidity Pressure Visibility Wind Dir Wind Speed Gust Speed Precip Events Conditions
12:12 AM 51.8 °F 51.8 °F 100% 30.33 in 5.0 mi ESE 5.8 mph - N/A   Overcast
12:55 AM 51.1 °F 51.1 °F 100% 30.19 in 6.0 mi East 5.8 mph - N/A   Overcast
1:55 AM 52.0 °F 52.0 °F 100% 30.18 in 9.0 mi East 5.8 mph - N/A   Overcast
2:40 AM 51.8 °F 51.8 °F 100% 30.30 in 9.0 mi ESE 6.9 mph - N/A   Overcast
2:52 AM 51.8 °F 51.8 °F 100% 30.30 in 8.0 mi ESE 8.1 mph - N/A   Overcast
2:55 AM 51.1 °F 51.1 °F 100% 30.18 in 6.0 mi ESE 8.1 mph - N/A   Overcast
3:55 AM 51.1 °F 51.1 °F 100% 30.18 in 2.5 mi SE 8.1 mph - N/A   Overcast
4:09 AM 51.8 °F 51.8 °F 100% 30.29 in 4.0 mi SE 9.2 mph - N/A   Overcast
4:46 AM 51.8 °F 51.8 °F 100% 30.29 in 2.5 mi ESE 10.4 mph - N/A   Overcast
4:55 AM 51.1 °F 51.1 °F 100% 30.19 in 2.5 mi SE 11.5 mph - N/A   Overcast
5:19 AM 51.8 °F 51.8 °F 100% 30.29 in 1.5 mi SE 13.8 mph - N/A   Overcast
5:44 AM 51.8 °F 51.8 °F 100% 30.29 in 3.0 mi SE 11.5 mph - N/A   Overcast
5:55 AM 51.1 °F 51.1 °F 100% 30.19 in 2.5 mi SE 12.7 mph - N/A   Overcast
6:06 AM 51.8 °F 51.8 °F 100% 30.30 in 6.0 mi SE 11.5 mph - N/A   Overcast
6:55 AM 51.1 °F 51.1 °F 100% 30.19 in 5.0 mi SE 12.7 mph 20.7 mph N/A   Overcast
7:27 AM 51.8 °F 51.8 °F 100% 30.31 in 1.8 mi SE 12.7 mph - N/A   Overcast
7:38 AM 51.8 °F 51.8 °F 100% 30.31 in 3.0 mi SSE 12.7 mph 20.7 mph N/A   Overcast
7:45 AM 51.8 °F 51.8 °F 100% 30.31 in 1.8 mi SSE 13.8 mph 20.7 mph N/A   Overcast
7:55 AM 51.1 °F 51.1 °F 100% 30.21 in 3.0 mi SSE 12.7 mph - N/A   Overcast
8:55 AM 52.0 °F 52.0 °F 100% 30.21 in 7.0 mi SE 13.8 mph - N/A   Overcast
9:55 AM 53.1 °F 53.1 °F 100% 30.20 in 6.0 mi SSE 12.7 mph 21.9 mph N/A   Overcast
10:31 AM 55.4 °F 53.6 °F 94% 30.31 in 10.0 mi SSE 12.7 mph 25.3 mph N/A   Overcast
10:55 AM 55.0 °F 53.1 °F 93% 30.19 in 10.0 mi South 15.0 mph 26.5 mph N/A   Overcast
11:08 AM 55.4 °F 53.6 °F 94% 30.30 in 10.0 mi South 10.4 mph 19.6 mph N/A   Overcast
11:35 AM 55.4 °F 53.6 °F 94% 30.29 in 10.0 mi South 11.5 mph 21.9 mph N/A   Overcast
11:51 AM 55.4 °F 53.6 °F 94% 30.29 in 10.0 mi South 11.5 mph - N/A   Overcast
11:55 AM 55.9 °F 53.1 °F 90% 30.17 in 10.0 mi South 12.7 mph - N/A   Overcast
12:26 PM 57.2 °F 53.6 °F 88% 30.27 in 10.0 mi South 12.7 mph 20.7 mph N/A   Overcast
12:55 PM 57.9 °F 52.0 °F 81% 30.14 in 10.0 mi South 12.7 mph - N/A   Overcast
1:55 PM 59.0 °F 53.1 °F 81% 30.12 in 10.0 mi South 12.7 mph 20.7 mph N/A   Overcast
2:55 PM 61.0 °F 54.0 °F 78% 30.09 in 10.0 mi SSE 16.1 mph 31.1 mph N/A   Overcast
3:55 PM 62.1 °F 53.1 °F 72% 30.05 in 10.0 mi South 13.8 mph 23.0 mph N/A   Overcast
4:55 PM 62.1 °F 53.1 °F 72% 30.04 in 10.0 mi South 17.3 mph 21.9 mph N/A   Mostly Cloudy
5:55 PM 63.0 °F 54.0 °F 72% 30.03 in 10.0 mi South 17.3 mph 24.2 mph N/A   Mostly Cloudy
6:05 PM 62.6 °F 53.6 °F 72% 30.16 in 10.0 mi South 17.3 mph 24.2 mph N/A   Partly Cloudy
6:55 PM 60.1 °F 54.0 °F 80% 30.03 in 10.0 mi SSE 13.8 mph - N/A   Clear
7:55 PM 55.9 °F 55.0 °F 97% 30.05 in 10.0 mi SSE 12.7 mph 19.6 mph N/A   Clear
8:02 PM 57.2 °F 55.4 °F 94% 30.17 in 10.0 mi SSE 12.7 mph - N/A   Scattered Clouds
8:11 PM 57.2 °F 55.4 °F 94% 30.17 in 10.0 mi SSE 11.5 mph 19.6 mph N/A   Mostly Cloudy
8:36 PM 57.2 °F 57.2 °F 100% 30.18 in 10.0 mi SSE 13.8 mph 20.7 mph N/A   Overcast
8:55 PM 57.0 °F 55.9 °F 96% 30.06 in 10.0 mi SSE 13.8 mph 26.5 mph N/A   Overcast
9:03 PM 57.2 °F 55.4 °F 94% 30.18 in 9.0 mi SSE 20.7 mph 27.6 mph N/A   Overcast
9:34 PM 55.4 °F 55.4 °F 100% 30.19 in 1.8 mi SSE 19.6 mph 26.5 mph N/A   Overcast
9:52 PM 55.4 °F 55.4 °F 100% 30.19 in 0.8 mi SSE 17.3 mph 26.5 mph N/A   Mist
9:55 PM 55.9 °F 55.9 °F 100% 30.07 in 0.5 mi SSE 19.6 mph 28.8 mph N/A Fog Fog
10:10 PM 55.4 °F 55.4 °F 100% 30.19 in 1.8 mi South 12.7 mph 28.8 mph N/A   Overcast
10:16 PM 55.4 °F 55.4 °F 100% 30.19 in 3.0 mi SSE 15.0 mph 26.5 mph N/A   Overcast
10:28 PM 55.4 °F 55.4 °F 100% 30.19 in 2.0 mi SSE 18.4 mph 26.5 mph N/A   Overcast
10:55 PM 57.0 °F 57.0 °F 100% 30.06 in 1.8 mi SSE 18.4 mph 26.5 mph N/A   Overcast
11:30 PM 57.2 °F 57.2 °F 100% 30.19 in 2.5 mi SSE 13.8 mph - N/A   Overcast
11:55 PM 57.0 °F 57.0 °F 100% 30.05 in 2.5 mi SSE 13.8 mph 19.6 mph N/A   Overcast